Погода в Крещенке

Погода в Крещенке : погода сейчас, прогноз погоды и архив. Всё, что Вы хотите узнать о погоде в Крещенке!

Хотите узнать прогноз погоды в Крещенке? Тогда Вам сюда: Погода в Крещенке

Поиск расширенной информации на нашем сайте:

Другие новости

Новости СМИ2

Главная страница сайта

Новости сайта

02.10.2013

Напоминаем, что на нашем новом сайте вы можете получить высокодетализированные прогнозы погоды по пунктам России, СНГ и мира (включающие важные для авиации метеовеличины, такие как направление и скорость ветра, видимость, явления погоды, количество и форма облачности, нижняя и верхняя граница облачности), а также ознакомиться с разнообразными материалами по авиационной метеорологии и подборкой полезных ссылок на эту тему.

Сайт Метеоцентр.Азия посвящён разработке технологий оптимизации авиаметеорологического обслуживания, включая проектирование и перспективное создание нескольких автоматизированных авиаметеорологических систем:
- система выпуска высокодетальных прогностических карт явлений погоды для нижнего воздушного пространства по России и ближнему зарубежью;
- система верификации прогнозов TAF (выпускаемых синоптиками официальных АМСГ РФ и ближнего зарубежья) и AUTOTAF (выпускаемых сайтом Метеоцентр.Азия) - выявление ошибок, онлайн-сопоставление с фактической погодой METAR, автоматическое внесение коррективов в прогнозы при резком отклонении фактической погоды от прогноза, подсчёт оправдываемости прогнозов по элементам и в целом;
- система обработки, анализа и отображения авиаметеорологической информации для применения провайдерами метеорологической информации.

Рекомендуем: Суши Винница купить посуда для Суши.

Погода в Крещенке - сегодня

Время (UTC), дата Ветер
(°,м/с) 
Видим.   Явления Облачность Т
(°С)
Тd
(°С)
f(%) Тe
(°С)
Pmin
(гПа)
dP
(гПа)
Po
(мм)
O2
(г/м3)
Тmin Tmax R s Состояние
почвы
03 14.01.17 150 (ЮВ) 10 км  слаб. снег  10/10 600 м 
[Sc]
-22.6 -25.3 79 -23  1027.5  -0.3  757  334           
06 14.01.17 110 (В) 10 км  слаб. снег  10/10 600 м 
[Sc]
-19.4 -22 80 -20  1026.6  -0.6  757  330           
09 14.01.17 090 (В) 10 км  слаб. снег  10/10 600 м 
[Sc]
-17.1 -19.7 80 -17  1027.3  0.8  757  327           
12 14.01.17 030 (СВ) 10 км  слаб. снег  10/0 средняя 
[As op]
-18.8 -20.9 83 -19  1029  1.6  759  330    -16.6  0.7     
15 14.01.17 030 (СВ) 20000 м  {снег}  ясно 
-23.6 -26.2 79 -27  1031  1.6  760  337           
18 14.01.17 030 (СВ) 20000 м  {снег}  ясно 
-27.2 -30.2 76 -28  1033.5  2.2  761  343           
21 14.01.17 050 (СВ) 20000 м    ясно 
-30 -33.3 73 -31  1035.9  2.1  763  347           
00 15.01.17 тихо ()   20000 м    ясно 
-32.9 -36.6 70 -33  1038.3  2.2  765  352  -32.9    0.0  70  неравномерный
сухой снег
100% 
03 15.01.17 тихо ()   20000 м    3/0 верхняя 
[Ci fib]
-35.8 -39.9 66 -36  1040.2  1.6  766  357  -35.9         
06 15.01.17 080 (В) 20000 м    10/0 средняя, верхняя 
[Ac trans|Ci fib]
-28.3 -31.9 71 -29  1040.7  1.1  767  347           
09 15.01.17 130 (ЮВ) 20000 м    9/0 средняя, верхняя 
[Ac trans|Ci sp]
-24.6 -28 73 -25  1040.4  767  341           
12 15.01.17 130 (ЮВ) 20000 м    10/10 300 м 
[Sc]
-23.1 -26.4 74 -26  1040.6  0.2  767  339    -23.1       
15 15.01.17 130 (ЮВ) 10 км  слаб. снег  10/10 300 м 
[Sc]
-21.7 -24.4 79 -26  1039.6  -0.8  766  337           
18 15.01.17 150 (ЮВ) 10 км  слаб. снег  10/10 600 м 
[Sc]
-21 -23.6 80 -24  1038.7  -0.8  766  336           
21 15.01.17 130 (ЮВ) 20000 м  {снег}  ясно 
-23.4 -26 79 -26  1038.6  -0.3  765  339           
00 16.01.17 тихо ()   20000 м  {снег}  ясно 
-27.5 -30.6 75 -28  1038.9  765  345  -28.2    74  неравномерный
сухой снег
100% 
03 16.01.17 130 (ЮВ) 20000 м    ясно 
-31.3 -34.8 71 -32  1039.6  0.4  766  350  -31.6         
06 16.01.17 100 (В) 20000 м    10/0 верхняя 
[Ci sp]
-22.9 -25.7 78 -23  1038.6  -0.4  765  338           
09 16.01.17 140 (ЮВ) 20000 м    9/0 верхняя 
[Ci fib]
-20.6 -23.2 80 -21  1038.1  -0.3  765  335           
12 16.01.17 тихо ()   20000 м    10/0 верхняя 
[Cs]
-22 -24.5 80 -22  1038.4  0.2  765  337    -20.2       
15 16.01.17 тихо ()   20000 м    ясно 
-22.6 -25.2 79 -23  1038.1  -0.3  765  338           
18 16.01.17 140 (ЮВ) 20000 м    10/0 верхняя 
[Cs]
-23.1 -25.8 78 -24  1038.3  0.1  765  339           
21 16.01.17 140 (ЮВ) 20000 м    ясно 
-26.3 -29.3 76 -27  1038.5  765  343           
00 17.01.17 тихо ()   20000 м    ясно 
-28.1 -31.2 75 -28  1039.4  0.7  766  346  -28.2      74  неравномерный
сухой снег
100% 
03 17.01.17 140 (ЮВ) 20000 м    6/6 600 м 
[Sc]
-28.7 -32 73 -29  1039.7  0.3  766  347  -29.7         
Время (UTC), дата Ветер
(°,м/с) 
Видим.   Явления Облачность Т
(°С)
Тd
(°С)
f(%) Тe
(°С)
Pmin
(гПа)
dP
(гПа)
Po
(мм)
O2
(г/м3)
Тmin Tmax R s Состояние
почвы

Для получения пояснительной информации подведите курсор к названию столбца.

ПОГОДА в Крещенке - архив

Всё, что Вы хотите узнать о погоде в Крещенке - удобно и подробно!

Выберите нужную дату (начиная с 1 января 2015* года) и нажмите кнопку "Найти".
Будут отображены архивные сводки погоды по пункту Крещенка, начиная с указанной даты.


Отображать данные в формате CSV (для использования в таблицах Excel)


Внимание! Наш архив погоды предназначен исключительно для личного некоммерческого использования в познавательных целях. Если Вам необходимы официальные справки о состоянии погоды (для производственных, юридических, коммерческих и т.п. целей), обращайтесь в органы Росгидромета.

*Примечание: данная дата относится к архиву по метеостанциям СССР (Россия, СНГ, Балтия).
Архив по метеостанциям Зарубежной Европы и Азии (кроме Китая) хранится 10 дней, по другим регионам земного шара (Китай, Африка, Америка, Австралия, Океания) - 1 день.

Крещенка - район местоположения метеостанции


Название, широта, долгота, высота метеостанции:
Крещенка 55.9°ш. 80°д. 129 м над ур. моря [Российская Федерация]

Дополнительная информация

В oтличие oт бoльшинства пoгoдных сайтoв мы публикуем пoдрoбную метеoинфoрмацию в детальнoм прoфессиoнальнoм фoрмате.

Характеристики температуры и влажнoсти вoздуха измеряются на высoте 2 м в тени вдали oт зданий и деревьев.
Скoрoсть ветра измеряется на высoте 10 м (на урoвне рoста челoвека скoрoсть ветра ниже в 1.5-2 раза). Если метеoстанция нахoдится в гoрoде или в лесу, тo скoрoсть ветра занижена на 2-4 м/с пo сравнению с oткрытым местoм. Скoрoсть ветра над акватoриями крупных рек и oзёр, а также на вершинах хoлмoв на 2-5 м/с выше, чем в oбычных услoвиях.
Атмoсфернoе давление в разных тoчках местнoсти мoжет значительнo oтличаться oт давления на метеoстанции, в зависимoсти oт услoвий рельефа (при пoдъёме на 10 м давление пoнижается примернo на 1 мм рт.ст.).